Time,TemperatureF,DewpointF,PressureIn,WindDirection,WindDirectionDegrees,WindSpeedMPH,WindSpeedGustMPH,Humidity,HourlyPrecipIn,Conditions,Clouds,dailyrainin,SoftwareType,DateUTC
2013-12-17 00:00:00,17.0,15.6,29.39,West,270,5.0,12.0,94,0.00,,,-99.99,Weather View 32 v60,2013-12-17 06:00:00,
2013-12-17 00:29:00,17.0,15.6,29.39,West,270,8.0,13.0,94,0.00,,,-99.99,Weather View 32 v60,2013-12-17 06:29:00,
2013-12-17 00:30:00,14.0,13.5,30.16,NNW,338,0.0,0.0,98,0.00,,,-99.99,Weather View 32 v60,2013-12-17 06:30:00,
2013-12-17 00:59:00,17.0,15.6,29.38,WSW,248,8.0,13.0,94,0.00,,,-99.99,Weather View 32 v60,2013-12-17 06:59:00,
2013-12-17 01:00:00,17.0,15.6,29.38,WSW,248,8.0,13.0,94,0.00,,,-99.99,Weather View 32 v60,2013-12-17 07:00:00,
2013-12-17 01:29:00,17.0,15.6,29.35,SW,225,6.0,11.0,94,0.00,,,-99.99,Weather View 32 v60,2013-12-17 07:29:00,
2013-12-17 01:30:00,14.0,14.0,30.13,WNW,292,0.0,0.0,100,0.00,,,-99.99,Weather View 32 v60,2013-12-17 07:30:00,
2013-12-17 01:59:00,17.0,15.6,29.35,SW,225,8.0,11.0,94,0.00,,,-99.99,Weather View 32 v60,2013-12-17 07:59:00,
2013-12-17 02:00:00,17.0,15.6,29.35,SW,225,8.0,11.0,94,0.00,,,-99.99,Weather View 32 v60,2013-12-17 08:00:00,
2013-12-17 02:29:00,17.0,15.6,29.34,SSW,202,6.0,13.0,94,0.00,,,-99.99,Weather View 32 v60,2013-12-17 08:29:00,
2013-12-17 02:30:00,15.0,15.0,30.11,WNW,292,0.0,0.0,100,0.00,,,-99.99,Weather View 32 v60,2013-12-17 08:30:00,
2013-12-17 02:59:00,18.0,16.6,29.32,SW,225,6.0,13.0,94,0.00,,,-99.99,Weather View 32 v60,2013-12-17 08:59:00,
2013-12-17 03:00:00,18.0,16.6,29.32,SW,225,6.0,13.0,94,0.00,,,-99.99,Weather View 32 v60,2013-12-17 09:00:00,
2013-12-17 03:29:00,18.0,16.6,29.31,WSW,248,5.0,12.0,94,0.00,,,-99.99,Weather View 32 v60,2013-12-17 09:29:00,
2013-12-17 03:30:00,16.0,16.0,30.07,WNW,292,0.0,0.0,100,0.00,,,-99.99,Weather View 32 v60,2013-12-17 09:30:00,
2013-12-17 03:59:00,19.0,17.6,29.28,SSW,202,6.0,11.0,94,0.00,,,-99.99,Weather View 32 v60,2013-12-17 09:59:00,
2013-12-17 04:00:00,19.0,17.6,29.28,SSW,202,6.0,11.0,94,0.00,,,-99.99,Weather View 32 v60,2013-12-17 10:00:00,
2013-12-17 04:29:00,20.0,18.6,29.28,SW,225,9.0,13.0,94,0.00,,,-99.99,Weather View 32 v60,2013-12-17 10:29:00,
2013-12-17 04:30:00,17.0,17.0,30.05,NNW,338,0.0,0.0,100,0.00,,,-99.99,Weather View 32 v60,2013-12-17 10:30:00,
2013-12-17 04:59:00,22.0,20.3,29.26,SW,225,6.0,16.0,93,0.00,,,-99.99,Weather View 32 v60,2013-12-17 10:59:00,
2013-12-17 05:00:00,22.0,20.3,29.26,SW,225,6.0,16.0,93,0.00,,,-99.99,Weather View 32 v60,2013-12-17 11:00:00,
2013-12-17 05:29:00,21.0,19.3,29.26,SW,225,6.0,16.0,93,0.00,,,-99.99,Weather View 32 v60,2013-12-17 11:29:00,
2013-12-17 05:30:00,18.0,18.0,30.04,West,270,0.0,0.0,100,0.00,,,-99.99,Weather View 32 v60,2013-12-17 11:30:00,
2013-12-17 05:59:00,22.0,20.3,29.25,SW,225,7.0,11.0,93,0.00,,,-99.99,Weather View 32 v60,2013-12-17 11:59:00,
2013-12-17 06:00:00,22.0,20.3,29.25,SW,225,7.0,11.0,93,0.00,,,-99.99,Weather View 32 v60,2013-12-17 12:00:00,
2013-12-17 06:29:00,23.0,21.3,29.25,SW,225,5.0,10.0,93,0.00,,,-99.99,Weather View 32 v60,2013-12-17 12:29:00,
2013-12-17 06:30:00,19.0,19.0,30.02,West,270,0.0,0.0,100,0.00,,,-99.99,Weather View 32 v60,2013-12-17 12:30:00,
2013-12-17 06:59:00,24.0,22.3,29.25,WSW,248,7.0,11.0,93,0.00,,,-99.99,Weather View 32 v60,2013-12-17 12:59:00,
2013-12-17 07:00:00,24.0,22.3,29.25,WSW,248,7.0,11.0,93,0.00,,,-99.99,Weather View 32 v60,2013-12-17 13:00:00,
2013-12-17 07:29:00,26.0,24.3,29.25,West,270,8.0,11.0,93,0.00,,,-99.99,Weather View 32 v60,2013-12-17 13:29:00,
2013-12-17 07:30:00,22.0,21.8,30.02,NNW,338,0.0,0.0,99,0.00,,,-99.99,Weather View 32 v60,2013-12-17 13:30:00,
2013-12-17 07:59:00,28.0,26.2,29.25,WSW,248,5.0,13.0,93,0.00,,,-99.99,Weather View 32 v60,2013-12-17 13:59:00,
2013-12-17 08:00:00,28.0,26.2,29.25,WSW,248,5.0,13.0,93,0.00,,,-99.99,Weather View 32 v60,2013-12-17 14:00:00,
2013-12-17 08:29:00,29.0,27.0,29.28,West,270,6.0,15.0,92,0.00,,,-99.99,Weather View 32 v60,2013-12-17 14:29:00,
2013-12-17 08:30:00,24.0,23.5,30.04,West,270,0.0,0.0,98,0.00,,,-99.99,Weather View 32 v60,2013-12-17 14:30:00,
2013-12-17 08:59:00,30.0,28.0,29.27,West,270,7.0,15.0,92,0.00,,,-99.99,Weather View 32 v60,2013-12-17 14:59:00,
2013-12-17 09:00:00,30.0,28.0,29.27,West,270,7.0,15.0,92,0.00,,,-99.99,Weather View 32 v60,2013-12-17 15:00:00,
2013-12-17 09:29:00,31.0,28.7,29.28,WNW,292,4.0,14.0,91,0.00,,,-99.99,Weather View 32 v60,2013-12-17 15:29:00,
2013-12-17 09:30:00,29.0,28.0,30.06,NNW,338,0.0,1.0,96,0.00,,,-99.99,Weather View 32 v60,2013-12-17 15:30:00,
2013-12-17 09:59:00,33.0,30.1,29.29,WNW,292,18.0,21.0,89,0.00,,,-99.99,Weather View 32 v60,2013-12-17 15:59:00,
2013-12-17 10:00:00,33.0,30.1,29.29,WNW,292,18.0,21.0,89,0.00,,,-99.99,Weather View 32 v60,2013-12-17 16:00:00,
2013-12-17 10:29:00,34.0,28.8,29.28,WNW,292,18.0,27.0,81,0.00,,,-99.99,Weather View 32 v60,2013-12-17 16:29:00,
2013-12-17 10:30:00,32.0,29.4,30.05,NNE,22,0.0,18.0,90,0.00,,,-99.99,Weather View 32 v60,2013-12-17 16:30:00,
2013-12-17 11:00:00,35.0,28.8,29.29,NW,315,10.0,27.0,78,0.00,,,-99.99,Weather View 32 v60,2013-12-17 17:00:00,
2013-12-17 11:29:00,35.0,27.5,29.28,NW,315,8.0,24.0,74,0.00,,,-99.99,Weather View 32 v60,2013-12-17 17:29:00,
2013-12-17 11:30:00,32.0,26.5,30.03,NNE,22,0.0,21.0,80,0.00,,,-99.99,Weather View 32 v60,2013-12-17 17:30:00,
2013-12-17 11:59:00,35.0,26.5,29.27,West,270,10.0,24.0,71,0.00,,,-99.99,Weather View 32 v60,2013-12-17 17:59:00,
2013-12-17 12:00:00,35.0,26.5,29.27,West,270,10.0,24.0,71,0.00,,,-99.99,Weather View 32 v60,2013-12-17 18:00:00,
2013-12-17 12:29:00,34.0,27.9,29.29,WNW,292,6.0,19.0,78,0.00,,,-99.99,Weather View 32 v60,2013-12-17 18:29:00,
2013-12-17 12:30:00,30.0,25.8,30.03,NNE,22,4.0,19.0,84,0.00,,,-99.99,Weather View 32 v60,2013-12-17 18:30:00,
2013-12-17 12:59:00,33.0,29.8,29.28,NW,315,11.0,19.0,88,0.00,,,-99.99,Weather View 32 v60,2013-12-17 18:59:00,
2013-12-17 13:00:00,31.0,27.6,30.04,NNE,22,0.0,19.0,87,0.00,,,-99.99,Weather View 32 v60,2013-12-17 19:00:00,
2013-12-17 13:29:00,34.0,25.6,29.28,West,270,14.0,27.0,71,0.00,,,-99.99,Weather View 32 v60,2013-12-17 19:29:00,
2013-12-17 13:30:00,32.0,25.3,30.05,North,0,0.0,24.0,76,0.00,,,-99.99,Weather View 32 v60,2013-12-17 19:30:00,
2013-12-17 13:59:00,34.0,23.8,29.28,NW,315,5.0,27.0,66,0.00,,,-99.99,Weather View 32 v60,2013-12-17 19:59:00,
2013-12-17 14:00:00,32.0,25.0,30.05,North,0,0.0,24.0,75,0.00,,,-99.99,Weather View 32 v60,2013-12-17 20:00:00,
2013-12-17 14:29:00,33.0,24.6,29.30,WNW,292,11.0,27.0,71,0.00,,,-99.99,Weather View 32 v60,2013-12-17 20:29:00,
2013-12-17 14:30:00,30.0,23.4,30.06,NNE,22,0.0,19.0,76,0.00,,,-99.99,Weather View 32 v60,2013-12-17 20:30:00,
2013-12-17 15:00:00,32.0,21.9,29.33,WNW,292,6.0,27.0,66,0.00,,,-99.99,Weather View 32 v60,2013-12-17 21:00:00,
2013-12-17 15:29:00,32.0,23.0,29.34,NW,315,7.0,19.0,69,0.00,,,-99.99,Weather View 32 v60,2013-12-17 21:29:00,
2013-12-17 15:30:00,30.0,23.0,30.09,North,0,0.0,16.0,75,0.00,,,-99.99,Weather View 32 v60,2013-12-17 21:30:00,
2013-12-17 15:59:00,32.0,21.2,29.36,WNW,292,10.0,19.0,64,0.00,,,-99.99,Weather View 32 v60,2013-12-17 21:59:00,
2013-12-17 16:00:00,32.0,21.2,29.36,WNW,292,10.0,19.0,64,0.00,,,-99.99,Weather View 32 v60,2013-12-17 22:00:00,
2013-12-17 16:29:00,31.0,21.3,29.37,WNW,292,10.0,19.0,67,0.00,,,-99.99,Weather View 32 v60,2013-12-17 22:29:00,
2013-12-17 16:30:00,28.0,21.4,30.13,NW,315,0.0,17.0,76,0.00,,,-99.99,Weather View 32 v60,2013-12-17 22:30:00,
2013-12-17 16:59:00,31.0,22.7,29.39,WNW,292,8.0,19.0,71,0.00,,,-99.99,Weather View 32 v60,2013-12-17 22:59:00,
2013-12-17 17:00:00,28.0,21.7,30.13,North,0,0.0,18.0,77,0.00,,,-99.99,Weather View 32 v60,2013-12-17 23:00:00,
2013-12-17 17:29:00,30.0,22.7,29.38,NW,315,7.0,19.0,74,0.00,,,-99.99,Weather View 32 v60,2013-12-17 23:29:00,
2013-12-17 17:30:00,28.0,21.7,30.14,North,0,0.0,18.0,77,0.00,,,-99.99,Weather View 32 v60,2013-12-17 23:30:00,
2013-12-17 17:59:00,30.0,22.4,29.40,WNW,292,13.0,19.0,73,0.00,,,-99.99,Weather View 32 v60,2013-12-17 23:59:00,
2013-12-17 18:00:00,27.0,21.4,30.14,NW,315,0.0,11.0,79,0.00,,,-99.99,Weather View 32 v60,2013-12-18 00:00:00,
2013-12-17 18:29:00,30.0,23.4,29.40,WNW,292,6.0,19.0,76,0.00,,,-99.99,Weather View 32 v60,2013-12-18 00:29:00,
2013-12-17 18:30:00,27.0,22.2,30.16,North,0,0.0,11.0,82,0.00,,,-99.99,Weather View 32 v60,2013-12-18 00:30:00,
2013-12-17 18:59:00,29.0,23.3,29.41,WNW,292,8.0,19.0,79,0.00,,,-99.99,Weather View 32 v60,2013-12-18 00:59:00,
2013-12-17 19:00:00,27.0,21.9,30.17,North,0,0.0,11.0,81,0.00,,,-99.99,Weather View 32 v60,2013-12-18 01:00:00,
2013-12-17 19:29:00,29.0,22.7,29.41,WNW,292,10.0,15.0,77,0.00,,,-99.99,Weather View 32 v60,2013-12-18 01:29:00,
2013-12-17 19:30:00,26.0,21.3,30.17,NW,315,0.0,11.0,82,0.00,,,-99.99,Weather View 32 v60,2013-12-18 01:30:00,
2013-12-17 19:59:00,29.0,23.0,29.42,West,270,7.0,16.0,78,0.00,,,-99.99,Weather View 32 v60,2013-12-18 01:59:00,
2013-12-17 20:00:00,26.0,21.3,30.17,North,0,0.0,10.0,82,0.00,,,-99.99,Weather View 32 v60,2013-12-18 02:00:00,
2013-12-17 20:29:00,28.0,21.7,29.44,SE,135,1.0,18.0,77,0.00,,,-99.99,Weather View 32 v60,2013-12-18 02:29:00,
2013-12-17 20:30:00,26.0,21.3,30.19,NNE,22,0.0,14.0,82,0.00,,,-99.99,Weather View 32 v60,2013-12-18 02:30:00,
2013-12-17 20:59:00,26.0,17.2,29.44,NNW,338,10.0,20.0,69,0.00,,,-99.99,Weather View 32 v60,2013-12-18 02:59:00,
2013-12-17 21:00:00,24.0,18.7,30.19,NNE,22,6.0,17.0,80,0.00,,,-99.99,Weather View 32 v60,2013-12-18 03:00:00,
2013-12-17 21:29:00,25.0,15.6,29.46,NW,315,8.0,20.0,67,0.00,,,-99.99,Weather View 32 v60,2013-12-18 03:29:00,
2013-12-17 21:30:00,22.0,15.6,30.21,NNE,22,8.0,17.0,76,0.00,,,-99.99,Weather View 32 v60,2013-12-18 03:30:00,
2013-12-17 21:59:00,23.0,13.0,29.46,WNW,292,11.0,21.0,65,0.00,,,-99.99,Weather View 32 v60,2013-12-18 03:59:00,
2013-12-17 22:00:00,21.0,13.7,30.23,North,0,0.0,18.0,73,0.00,,,-99.99,Weather View 32 v60,2013-12-18 04:00:00,
2013-12-17 22:29:00,22.0,12.0,29.49,NW,315,10.0,21.0,65,0.00,,,-99.99,Weather View 32 v60,2013-12-18 04:29:00,
2013-12-17 22:30:00,20.0,12.7,30.24,North,0,0.0,18.0,73,0.00,,,-99.99,Weather View 32 v60,2013-12-18 04:30:00,
2013-12-17 22:59:00,21.0,11.8,29.49,WNW,292,10.0,16.0,67,0.00,,,-99.99,Weather View 32 v60,2013-12-18 04:59:00,
2013-12-17 23:00:00,18.0,10.8,30.24,North,0,0.0,12.0,73,0.00,,,-99.99,Weather View 32 v60,2013-12-18 05:00:00,
2013-12-17 23:29:00,20.0,11.1,29.49,WNW,292,5.0,14.0,68,0.00,,,-99.99,Weather View 32 v60,2013-12-18 05:29:00,
2013-12-17 23:30:00,17.0,10.1,30.25,NNW,338,0.0,0.0,74,0.00,,,-99.99,Weather View 32 v60,2013-12-18 05:30:00,
2013-12-17 23:32:00,20.0,11.1,29.49,WNW,292,5.0,14.0,68,0.00,,,-99.99,Weather View 32 v60,2013-12-18 05:32:00,
2013-12-17 23:59:00,19.0,10.5,29.49,WNW,292,5.0,14.0,69,0.00,,,-99.99,Weather View 32 v60,2013-12-18 05:59:00,